This demonstration page uses our WeatherBlox Daily Observations layout. Learn more.

Left ArrowRight Arrow

41.12389, -100.76542

Hourly Observations for March 17, 2015

Temp ( °F °C ) Dew Point ( °F °C ) Humidity (%) Winds ( mph kmh ) Pressure ( in mb ) Visibility ( mi km ) Precip ( " mm )
12:53 am 00:53 Clear 37 2.8 29 -1.7 73 73 NNE 23 37 30.32 1027 10 16 0.00 0.00
1:44 am 01:44 Mostly Cloudy 36 2 28 -2 75 75 NNE 20 31 30.48 1032 10 16 0.00 0.00
1:53 am 01:53 Mostly Cloudy 36 2.2 28 -2.2 73 73 NNE 21 33 30.36 1028 10 16 0.00 0.00
2:23 am 02:23 Partly Cloudy 34 1.1 25 -3.9 70 70 NNE 18 30 30.53 1034 10 16 0.00 0.00
2:53 am 02:53 Clear 33 0.6 25 -3.9 72 72 NNE 14 22 30.41 1030 10 16 0.00 0.00
3:53 am 03:53 Clear 32 0 23 -5 69 69 NNE 15 24 30.42 1030 10 16 0.00 0.00
4:53 am 04:53 Clear 31 -0.6 20 -6.7 64 64 NNE 13 20 30.43 1031 10 16 0.00 0.00
5:53 am 05:53 Clear 29 -1.7 19 -7.2 66 66 NNE 10 17 30.48 1032 10 16 0.00 0.00
6:53 am 06:53 Clear 28 -2.2 18 -7.8 66 66 N 7 11 30.52 1034 10 16 0.00 0.00
7:53 am 07:53 Sunny 25 -3.9 18 -7.8 75 75 NNW 6 9 30.56 1035 10 16 0.00 0.00
8:53 am 08:53 Sunny 30 -1.1 19 -7.2 64 64 NNE 9 15 30.57 1035 10 16 0.00 0.00
9:53 am 09:53 Sunny 34 1.1 17 -8.3 50 50 NE 14 22 30.57 1035 10 16 0.00 0.00
10:53 am 10:53 Sunny 37 2.8 9 -12.8 31 31 ENE 16 26 30.57 1035 10 16 0.00 0.00
11:53 am 11:53 Sunny 40 4.4 8 -13.3 27 27 E 13 20 30.55 1035 10 16 0.00 0.00
12:53 pm 12:53 Sunny 43 6.1 4 -15.6 20 20 E 12 19 30.53 1034 10 16 0.00 0.00
1:53 pm 13:53 Mostly Cloudy 44 6.7 5 -15 20 20 SE 10 17 30.50 1033 10 16 0.00 0.00
2:53 pm 14:53 Cloudy 45 7.2 5 -15 19 19 SE 7 11 30.45 1031 10 16 0.00 0.00
3:53 pm 15:53 Cloudy 47 8.3 3 -16.1 16 16 ESE 10 17 30.41 1030 10 16 0.00 0.00
4:53 pm 16:53 Cloudy 49 9.4 3 -16.1 15 15 ESE 10 17 30.37 1029 10 16 0.00 0.00
5:53 pm 17:53 Mostly Sunny 49 9.4 3 -16.1 15 15 ESE 13 20 30.33 1027 10 16 0.00 0.00
6:53 pm 18:53 Sunny 47 8.3 3 -16.1 16 16 ESE 13 20 30.31 1027 10 16 0.00 0.00
7:53 pm 19:53 Clear 41 5 4 -15.6 21 21 E 9 15 30.33 1027 10 16 0.00 0.00
8:53 pm 20:53 Clear 36 2.2 9 -12.8 32 32 ESE 9 15 30.34 1027 10 16 0.00 0.00
9:53 pm 21:53 Clear 32 0 10 -12.2 40 40 E 8 13 30.34 1027 10 16 0.00 0.00
10:53 pm 22:53 Clear 32 0 10 -12.2 40 40 ESE 8 13 30.32 1027 10 16 0.00 0.00
11:53 pm 23:53 Clear 33 0.6 11 -11.7 40 40 E 7 11 30.29 1026 10 16 0.00 0.00

Powered by AerisWeather